Wind_Speed
20 16 15 15 15 15 18 21 21 21 22 22 21 19 16 15 15 17 19 21 23 24 25 24 24 25 25 24 24 24 24 24 24 24 23 23 23 23 23 23 23 23 23 22
14 9 9 10 12 12 14 15 16 15 13 12 12 11 11 12 14 15 17 19 20 22 23 23 23 22 23 22 23 24 24 24 24 24 23 23 23 24 23 23 24 24 24 23
10 2 5 7 9 8 8 10 9 8 5 4 6 7 7 8 9 10 11 13 14 17 19 20 20 20 21 22 22 23 24 24 24 24 24 24 24 24 24 24 24 24 24 24
6 1 3 6 6 7 7 6 6 5 3 3 4 4 5 5 5 4 4 5 7 10 13 14 15 16 17 18 19 21 22 22 23 23 24 24 24 24 25 24 24 24 24 24
5 3 5 8 7 8 8 6 4 4 3 3 2 3 3 4 4 4 3 2 2 4 6 9 11 13 15 16 17 19 21 22 22 23 23 24 24 24 25 24 24 24 24 25
7 6 7 7 6 7 8 7 6 4 3 3 2 2 3 3 3 4 4 3 3 4 6 8 10 12 14 16 17 19 20 21 21 22 22 23 23 23 23 23 23 24 24 25
8 6 6 5 4 6 7 6 8 5 4 3 2 1 2 3 4 4 4 5 6 7 9 11 12 13 15 16 17 19 19 20 21 21 21 21 21 21 21 22 23 23 24 25
8 5 4 5 4 5 6 6 7 5 4 2 1 2 3 3 4 5 6 7 8 10 11 12 13 14 15 17 17 18 19 20 20 20 19 18 18 19 20 21 21 22 24 25
8 5 3 3 3 3 4 4 5 5 3 2 1 2 3 3 4 5 7 8 10 11 12 13 14 15 16 17 18 18 18 18 18 17 17 17 17 18 19 19 21 22 23 25
9 6 4 2 3 4 3 2 2 4 3 2 3 3 3 4 6 7 8 10 12 13 14 15 15 16 16 17 17 17 17 17 16 16 16 16 16 17 17 18 19 20 20 21
10 7 5 3 3 4 4 3 3 4 2 2 3 2 3 5 7 8 10 12 13 15 15 15 16 16 17 17 17 17 16 16 15 16 16 16 16 16 16 17 17 18 18 18
10 7 5 2 1 3 3 3 3 4 2 2 1 1 4 6 8 10 11 13 14 16 16 16 16 16 16 16 16 16 16 16 16 16 15 15 15 15 15 16 16 16 15 14
10 6 4 3 2 4 4 4 3 4 4 3 2 1 4 6 8 10 12 14 15 16 16 16 16 16 16 16 16 16 16 16 16 15 15 14 14 14 14 13 14 14 13 10
13 6 3 3 3 3 3 3 4 5 5 4 3 2 4 6 8 10 12 14 15 16 16 16 16 16 16 16 16 16 16 15 15 14 13 13 12 12 12 12 11 11 11 9
16 9 4 4 5 6 5 5 4 5 6 6 5 4 4 6 8 10 12 14 15 15 16 16 16 16 16 17 16 16 15 14 13 12 11 11 11 11 11 10 10 10 10 9
20 14 8 5 6 7 8 7 6 6 7 7 7 6 5 6 8 10 12 13 14 15 15 16 16 16 16 16 16 15 14 13 12 11 11 11 10 10 10 10 10 10 10 9
23 18 13 7 7 8 9 9 9 9 9 9 9 8 7 6 8 9 11 12 13 14 14 15 15 16 16 16 15 14 14 13 13 12 12 11 11 11 11 11 11 11 11 10
25 22 17 12 8 9 11 12 11 11 11 12 12 10 9 8 8 9 10 11 12 13 13 13 14 15 15 15 14 14 13 14 14 14 14 14 14 14 13 13 13 13 13 13
26 25 22 17 12 10 11 13 14 13 13 14 14 12 11 9 9 8 9 9 10 11 11 12 13 14 14 14 14 14 14 14 14 15 15 15 15 15 15 15 15 15 15 15
25 26 25 22 18 13 11 13 15 16 15 15 16 15 12 11 10 9 8 8 9 9 10 10 11 12 12 13 13 13 13 13 13 13 13 13 14 14 14 14 15 15 15 15
23 25 25 24 22 18 14 13 15 17 17 17 18 17 15 13 12 10 9 7 7 7 7 8 9 10 10 11 11 11 11 12 12 12 12 12 12 13 13 14 15 15 15 16
22 24 25 26 24 22 18 14 14 16 18 19 19 18 17 15 13 12 10 8 6 6 6 6 7 7 8 8 9 9 9 10 10 10 10 10 11 12 12 13 14 14 15 15
22 23 24 26 25 24 21 17 15 16 18 20 21 20 19 18 16 14 12 9 7 5 5 5 5 6 6 6 6 6 6 7 8 8 9 9 9 10 11 11 12 13 13 14
21 22 23 25 26 25 24 21 17 16 18 21 22 22 21 20 18 16 15 12 9 7 5 5 4 5 5 5 4 3 4 5 6 7 7 8 8 9 10 10 10 11 12 13
22 22 23 24 25 26 25 23 20 17 18 20 23 24 24 23 21 19 18 15 12 9 7 6 5 5 4 4 3 2 1 2 4 5 6 6 7 8 9 9 10 10 11 12
24 23 24 24 25 26 26 25 23 20 18 20 23 25 26 26 24 22 21 19 16 13 10 8 7 6 6 5 5 4 2 1 1 2 3 5 5 6 7 8 9 10 11 11
26 25 25 26 26 26 26 26 25 23 20 20 22 26 28 28 27 25 24 22 20 17 14 11 10 9 8 7 7 6 5 4 3 3 3 4 4 5 6 7 8 9 10 11
Wind_Direction
305 285 272 262 250 244 242 245 248 253 255 259 260 268 272 275 275 270 265 263 262 263 266 269 274 278 281 283 286 289 292 295 298 298 298 296 293 291 291 289 287 285 282 278
319 283 252 251 244 248 241 243 250 258 261 258 260 275 287 286 280 274 267 264 261 260 262 266 268 271 276 279 282 286 291 295 297 297 297 296 294 292 291 289 286 285 283 280
340 275 203 230 231 234 229 231 236 236 249 278 288 297 306 302 293 285 277 268 262 260 263 263 266 269 273 277 282 285 290 295 296 296 296 296 295 294 291 288 286 284 283 281
350 167 224 214 217 218 215 210 215 224 243 286 298 312 324 329 327 320 295 274 258 257 262 265 267 273 279 283 286 290 294 296 297 297 296 295 294 292 290 288 286 284 281 278
320 256 244 239 222 206 214 216 196 200 245 292 306 311 341 3 21 37 43 38 317 288 281 281 283 287 292 294 294 295 297 298 298 297 296 295 293 291 289 287 285 282 279 276
309 280 252 239 239 221 220 218 204 209 225 269 277 295 348 27 51 54 44 28 353 328 311 302 300 300 301 301 299 299 300 301 300 299 298 297 294 292 290 288 286 282 278 275
325 294 266 241 228 213 216 211 203 209 213 232 208 5 33 37 35 26 8 356 345 336 328 320 314 311 309 307 305 305 304 303 302 301 300 299 296 293 292 290 288 284 280 276
350 325 286 233 230 216 217 217 215 218 205 202 150 66 42 26 18 7 353 345 338 331 326 322 318 314 312 310 309 308 306 305 305 304 303 301 299 297 296 294 291 288 284 279
5 1 333 253 237 226 222 217 217 209 189 167 132 85 44 19 4 352 342 335 330 327 324 321 318 316 314 312 311 310 309 308 308 307 307 306 305 304 302 299 297 293 289 284
14 10 348 301 249 227 214 199 196 192 170 137 110 78 25 1 352 342 335 331 328 326 323 320 318 317 315 314 314 315 313 312 312 313 313 312 311 311 310 308 305 301 297 291
20 11 354 324 257 233 223 226 212 205 191 138 103 51 5 353 346 340 335 332 329 327 325 324 322 320 319 318 319 319 319 318 317 316 316 315 315 316 317 319 318 314 310 303
20 12 1 347 249 233 233 244 242 219 195 174 152 4 349 345 342 338 335 333 331 330 329 328 327 326 326 326 326 325 323 321 319 317 316 316 317 320 322 325 327 329 327 322
15 9 357 344 257 235 243 249 235 215 201 189 195 302 330 335 337 337 336 335 334 334 334 334 334 335 336 335 333 329 325 323 321 319 317 318 321 324 329 333 338 343 345 345
12 2 339 312 269 238 248 246 236 221 205 201 217 269 317 329 334 336 337 338 339 340 340 340 340 341 342 341 339 334 330 326 324 322 322 324 328 333 339 345 349 355 1 6
10 1 329 283 264 245 246 242 234 211 208 215 227 252 296 320 329 334 338 341 343 344 344 344 345 346 346 346 344 342 339 337 335 336 337 339 342 348 354 358 4 10 17 24
6 3 346 294 261 247 237 235 230 219 219 226 233 245 274 306 322 331 337 342 345 346 347 348 350 351 353 353 353 352 352 353 354 355 356 358 2 8 13 17 22 26 31 36
3 1 353 322 268 244 234 229 230 230 230 230 237 246 261 290 311 323 334 341 346 348 350 351 354 356 358 0 1 1 4 8 11 13 16 19 22 25 29 33 36 38 40 43
358 357 353 340 298 259 240 234 233 233 234 232 234 241 252 273 294 312 327 338 346 350 352 354 357 0 3 6 8 11 15 20 24 27 30 33 35 39 42 44 46 48 48 49
351 354 354 348 327 286 257 242 234 233 235 232 231 236 245 259 276 295 315 331 342 349 353 356 360 4 8 12 15 19 23 25 28 31 34 38 41 44 47 48 50 51 51 50
343 347 349 349 341 320 285 256 240 234 233 231 230 234 240 250 263 279 299 319 334 345 351 355 0 5 10 14 17 21 25 28 31 34 38 42 46 48 49 49 50 52 53 53
334 338 341 344 344 335 311 277 251 238 234 232 231 232 236 243 252 264 278 299 318 333 345 352 358 3 8 12 16 21 26 31 35 38 41 45 49 51 52 53 54 56 57 57
326 329 333 336 339 339 329 300 267 248 238 232 230 230 232 235 242 250 260 275 295 312 329 341 350 357 0 5 11 19 26 31 35 38 42 47 50 52 53 53 54 56 56 56
319 321 324 328 331 334 333 320 287 259 244 235 231 229 228 230 235 241 247 256 269 285 302 317 331 340 346 353 1 11 22 32 38 42 45 50 52 53 52 51 51 51 50 50
310 312 315 319 323 326 327 326 308 273 252 241 234 229 226 227 231 235 237 242 250 261 274 287 301 313 321 330 343 2 25 38 44 45 47 49 51 50 47 45 43 42 42 42
301 303 306 309 313 317 321 320 315 292 263 247 237 230 227 227 229 231 233 236 240 246 255 265 275 282 288 294 296 302 3 39 44 43 41 40 41 41 39 37 34 33 33 33
292 294 297 300 303 308 313 314 312 303 278 255 242 233 229 227 228 228 230 232 235 238 244 251 257 260 262 263 258 250 250 280 1 17 18 20 25 28 29 27 26 25 24 23
285 286 288 291 294 298 303 307 307 303 288 264 249 238 231 228 227 227 228 229 231 233 237 242 246 248 248 248 246 243 244 252 269 293 319 340 356 7 13 15 15 14 13 13
Height
5739 5738 5740 5742 5745 5748 5752 5755 5758 5759 5761 5762 5764 5765 5767 5768 5769 5770 5771 5772 5774 5775 5775 5776 5777 5776 5776 5776 5775 5774 5773 5773 5772 5770 5768 5767 5765 5764 5763 5762 5761 5760 5760 5760
5735 5734 5737 5739 5742 5745 5748 5751 5754 5756 5757 5759 5760 5762 5763 5764 5765 5765 5766 5766 5767 5768 5769 5770 5770 5771 5771 5770 5770 5769 5768 5767 5766 5764 5762 5761 5759 5758 5757 5756 5755 5754 5753 5753
5733 5732 5734 5737 5740 5743 5745 5748 5751 5753 5755 5756 5759 5760 5761 5761 5761 5761 5761 5761 5762 5763 5764 5764 5764 5765 5765 5765 5765 5763 5762 5761 5760 5758 5756 5755 5753 5752 5750 5749 5748 5747 5747 5746
5733 5734 5735 5738 5738 5741 5744 5746 5749 5752 5754 5755 5757 5758 5759 5759 5758 5758 5758 5758 5758 5758 5760 5760 5760 5761 5761 5761 5760 5759 5757 5756 5754 5752 5750 5749 5747 5745 5744 5742 5741 5741 5740 5740
5733 5733 5734 5736 5737 5739 5743 5746 5748 5751 5753 5755 5756 5757 5758 5758 5757 5757 5757 5757 5757 5757 5758 5758 5758 5758 5758 5757 5756 5755 5753 5751 5749 5747 5745 5743 5741 5739 5737 5736 5735 5734 5733 5732
5732 5733 5734 5736 5737 5739 5744 5746 5748 5751 5753 5755 5756 5757 5758 5757 5757 5757 5757 5757 5757 5757 5757 5756 5756 5755 5754 5753 5752 5750 5748 5746 5744 5741 5739 5737 5735 5732 5730 5729 5728 5727 5726 5725
5732 5733 5734 5736 5738 5741 5745 5747 5748 5750 5753 5754 5756 5757 5758 5757 5757 5757 5757 5757 5756 5756 5755 5754 5753 5752 5750 5749 5747 5745 5743 5741 5739 5736 5734 5731 5729 5727 5725 5723 5721 5720 5719 5718
5733 5734 5737 5737 5739 5742 5745 5746 5749 5751 5753 5755 5756 5757 5757 5758 5758 5757 5757 5756 5756 5755 5753 5752 5750 5749 5747 5745 5743 5741 5739 5736 5734 5731 5729 5726 5724 5722 5719 5717 5715 5713 5712 5710
5735 5737 5737 5738 5741 5743 5745 5747 5750 5752 5754 5755 5756 5757 5758 5758 5758 5758 5757 5756 5755 5753 5752 5750 5748 5746 5744 5741 5739 5737 5734 5732 5730 5727 5725 5722 5720 5717 5714 5712 5709 5707 5704 5702
5738 5739 5740 5741 5743 5745 5747 5749 5751 5753 5755 5756 5757 5758 5758 5758 5758 5758 5757 5755 5754 5752 5750 5748 5745 5743 5740 5738 5735 5733 5730 5728 5726 5723 5721 5718 5716 5713 5710 5707 5704 5700 5697 5694
5742 5742 5743 5744 5745 5747 5749 5751 5753 5754 5756 5757 5757 5758 5759 5759 5758 5757 5756 5754 5752 5750 5748 5745 5743 5740 5737 5734 5732 5729 5727 5725 5722 5720 5717 5715 5712 5709 5706 5703 5699 5695 5691 5688
5745 5745 5745 5746 5747 5749 5751 5752 5754 5755 5756 5757 5758 5758 5759 5759 5758 5757 5755 5754 5751 5749 5746 5743 5740 5737 5734 5731 5729 5726 5724 5722 5719 5716 5714 5711 5708 5706 5702 5699 5696 5692 5687 5684
5748 5747 5747 5747 5748 5750 5751 5753 5754 5755 5756 5757 5758 5759 5759 5758 5758 5756 5755 5753 5750 5748 5745 5742 5739 5736 5732 5729 5726 5724 5721 5719 5716 5714 5711 5708 5706 5703 5700 5697 5694 5690 5686 5683
5749 5748 5748 5748 5749 5750 5751 5752 5754 5755 5756 5757 5758 5758 5759 5758 5757 5756 5754 5752 5750 5747 5744 5741 5738 5734 5731 5728 5725 5722 5719 5717 5714 5711 5709 5706 5704 5701 5698 5696 5693 5690 5687 5684
5751 5749 5748 5748 5748 5749 5750 5752 5753 5754 5755 5756 5757 5758 5758 5758 5757 5755 5754 5752 5749 5746 5743 5740 5737 5734 5730 5727 5724 5721 5718 5715 5713 5710 5707 5705 5702 5700 5697 5695 5693 5690 5688 5686
5752 5750 5748 5747 5747 5748 5749 5750 5752 5753 5754 5755 5756 5757 5757 5757 5756 5755 5753 5751 5749 5746 5743 5740 5737 5734 5730 5727 5724 5721 5718 5715 5712 5710 5707 5705 5702 5700 5698 5695 5693 5691 5689 5688
5753 5750 5748 5746 5745 5746 5747 5748 5750 5751 5752 5753 5755 5755 5756 5756 5755 5754 5753 5751 5749 5746 5743 5741 5738 5734 5731 5728 5725 5722 5719 5716 5713 5711 5708 5706 5703 5701 5699 5697 5695 5693 5692 5690
5753 5750 5747 5745 5743 5743 5744 5745 5747 5748 5749 5751 5752 5753 5754 5754 5754 5753 5752 5750 5748 5746 5744 5741 5738 5735 5732 5729 5726 5723 5721 5718 5716 5713 5711 5708 5706 5704 5702 5700 5698 5696 5695 5693
5752 5749 5746 5743 5741 5740 5741 5742 5743 5745 5746 5747 5749 5751 5752 5752 5752 5752 5751 5750 5748 5746 5744 5742 5739 5737 5734 5731 5728 5726 5723 5721 5719 5717 5714 5712 5710 5708 5706 5704 5702 5700 5698 5697
5751 5748 5744 5742 5739 5737 5737 5737 5739 5740 5742 5744 5745 5747 5749 5750 5750 5750 5750 5749 5748 5746 5744 5742 5740 5738 5736 5733 5731 5729 5727 5724 5722 5720 5718 5716 5714 5712 5710 5708 5706 5704 5703 5701
5750 5747 5743 5740 5737 5735 5733 5733 5734 5736 5738 5739 5741 5744 5745 5747 5748 5748 5748 5748 5747 5746 5744 5743 5741 5739 5738 5736 5734 5732 5730 5728 5726 5724 5722 5720 5718 5716 5715 5713 5711 5709 5707 5705
5747 5745 5742 5738 5735 5733 5731 5730 5730 5731 5733 5735 5737 5739 5741 5743 5744 5745 5746 5746 5746 5745 5744 5743 5742 5740 5739 5738 5736 5734 5733 5731 5729 5728 5726 5724 5722 5721 5719 5717 5716 5714 5712 5710
5744 5742 5739 5736 5733 5730 5728 5726 5726 5727 5729 5730 5733 5735 5737 5739 5741 5742 5744 5744 5744 5744 5743 5742 5742 5741 5740 5739 5738 5736 5735 5734 5732 5731 5729 5728 5726 5724 5723 5721 5720 5718 5716 5714
5739 5738 5735 5733 5730 5728 5725 5724 5722 5722 5724 5726 5728 5730 5732 5735 5737 5739 5740 5741 5742 5742 5742 5742 5741 5741 5740 5740 5739 5738 5737 5736 5734 5733 5732 5731 5729 5727 5726 5724 5723 5721 5719 5718
5734 5732 5731 5729 5727 5724 5722 5720 5719 5718 5718 5720 5722 5725 5727 5730 5732 5734 5736 5738 5739 5740 5740 5740 5740 5740 5740 5740 5739 5739 5738 5737 5736 5735 5734 5733 5732 5730 5728 5727 5725 5724 5722 5720
5727 5726 5725 5724 5722 5720 5718 5716 5715 5714 5713 5715 5717 5719 5722 5724 5727 5729 5732 5734 5736 5737 5738 5738 5739 5739 5739 5739 5739 5739 5739 5738 5737 5736 5735 5734 5733 5732 5730 5729 5727 5726 5724 5723
5719 5719 5718 5717 5716 5715 5714 5712 5710 5709 5708 5709 5711 5713 5716 5719 5721 5724 5726 5729 5731 5733 5735 5736 5736 5737 5737 5738 5738 5738 5738 5738 5738 5737 5736 5735 5734 5733 5731 5730 5729 5727 5726 5724